EW8565 Weather Reports


time (UTC)temp
C
wind
direction
speed
KPH
gust
KPH
rain 1hr
cm
rain 24hr
cm
rain mn
cm
humidity
%
barometer
mb
20190423083517 14 103 14.5 24.1 0.00 0.00 0.00 59 997.4
20190423082516 14 109 12.9 25.7 0.00 0.00 0.00 61 997.3
20190423081519 13 108 14.5 24.1 0.00 0.00 0.00 61 997.5
20190423080516 13 104 16.1 24.1 0.00 0.00 0.00 62 997.5
20190423075516 13 104 16.1 25.7 0.00 0.00 0.00 62 997.4
20190423074517 13 107 11.3 22.5 0.00 0.00 0.00 63 997.6
20190423073516 12 106 14.5 24.1 0.00 0.00 0.00 63 997.5
20190423072516 12 106 14.5 22.5 0.00 0.00 0.00 63 997.5
20190423071516 12 116 12.9 22.5 0.00 0.00 0.00 63 997.6
20190423070517 12 107 14.5 24.1 0.00 0.00 0.00 63 997.6
20190423065517 12 107 14.5 27.4 0.00 0.00 0.00 64 997.6
20190423064516 11 115 14.5 24.1 0.00 0.00 0.00 64 997.7
20190423063516 11 111 14.5 24.1 0.00 0.00 0.00 64 997.6
20190423062516 11 109 14.5 24.1 0.00 0.00 0.00 65 997.7
20190423061516 11 107 14.5 24.1 0.00 0.00 0.00 65 997.7
20190423060516 11 104 16.1 25.7 0.00 0.00 0.00 64 997.6
20190423055516 11 108 12.9 27.4 0.00 0.00 0.00 65 997.7
20190423054516 11 116 12.9 22.5 0.00 0.00 0.00 65 997.7
20190423053516 11 110 16.1 27.4 0.00 0.00 0.00 65 997.9
20190423052516 11 108 19.3 29.0 0.00 0.00 0.00 64 997.9
20190423051516 11 107 16.1 25.7 0.00 0.00 0.00 64 997.9
20190423050516 11 113 17.7 29.0 0.00 0.00 0.00 64 998.0
20190423045516 10 107 19.3 27.4 0.00 0.00 0.00 64 998.0
20190423044516 10 108 17.7 25.7 0.00 0.00 0.00 63 998.1
20190423043516 11 103 17.7 25.7 0.00 0.00 0.00 63 998.2
20190423042516 11 93 11.3 22.5 0.00 0.00 0.00 62 998.2
20190423041516 11 100 12.9 24.1 0.00 0.00 0.00 62 998.3
20190423040516 11 97 11.3 19.3 0.00 0.00 0.00 61 998.3
20190423035516 11 90 9.7 19.3 0.00 0.00 0.00 61 998.6
20190423034516 11 101 12.9 24.1 0.00 0.00 0.00 61 998.7
20190423033516 11 102 14.5 22.5 0.00 0.00 0.00 60 998.8
20190423032516 11 104 14.5 20.9 0.00 0.00 0.00 60 998.6
20190423031516 11 92 11.3 20.9 0.00 0.00 0.00 59 998.8
20190423030516 11 97 11.3 20.9 0.00 0.00 0.00 59 998.8
20190423025516 11 91 8.0 19.3 0.00 0.00 0.00 58 999.0
20190423024516 12 102 9.7 22.5 0.00 0.00 0.00 58 999.2
20190423023516 12 99 12.9 22.5 0.00 0.00 0.00 57 999.2
20190423022516 12 98 9.7 24.1 0.00 0.00 0.00 57 999.2
20190423021516 12 91 12.9 22.5 0.00 0.00 0.00 56 999.1
20190423020516 12 90 9.7 24.1 0.00 0.00 0.00 56 999.4
20190423015516 12 97 12.9 22.5 0.00 0.00 0.00 55 999.4
20190423014516 12 103 14.5 27.4 0.00 0.00 0.00 55 999.4
20190423013516 12 97 14.5 29.0 0.00 0.00 0.00 54 999.5
20190423012516 12 92 14.5 29.0 0.00 0.00 0.00 54 999.4
20190423011516 12 104 11.3 22.5 0.00 0.00 0.00 53 999.5
20190423010516 13 109 12.9 25.7 0.00 0.00 0.00 52 999.5
20190423005516 13 105 16.1 27.4 0.00 0.00 0.00 52 999.7
20190423004516 13 99 12.9 32.2 0.00 0.00 0.00 51 999.9
20190423003516 13 93 16.1 29.0 0.00 0.00 0.00 50 1000.0
20190423002516 13 99 19.3 33.8 0.00 0.00 0.00 50 999.9
20190423001515 13 98 19.3 38.6 0.00 0.00 0.00 50 1000.0
20190423000517 13 103 19.3 38.6 0.00 0.00 0.00 48 1000.1
20190422235519 13 99 22.5 38.6 0.00 0.00 0.00 48 1000.2
20190422234516 13 105 22.5 37.0 0.00 0.00 0.00 47 1000.4
20190422233516 14 105 22.5 41.8 0.00 0.00 0.00 46 1000.5
20190422232516 14 98 20.9 40.2 0.00 0.00 0.00 46 1000.4
20190422231516 14 95 17.7 33.8 0.00 0.00 0.00 45 1000.5
20190422230516 14 97 19.3 38.6 0.00 0.00 0.00 44 1000.8
20190422225516 15 101 20.9 41.8 0.00 0.00 0.00 44 1000.8
20190422224516 15 103 25.7 40.2 0.00 0.00 0.00 44 1000.8
20190422223516 15 104 24.1 43.5 0.00 0.00 0.00 43 1000.9
20190422222516 15 104 24.1 33.8 0.00 0.00 0.00 43 1001.0
20190422221516 15 104 24.1 43.5 0.00 0.00 0.00 43 1001.3
20190422220516 15 97 22.5 38.6 0.00 0.00 0.00 42 1001.4
20190422215516 16 100 22.5 49.9 0.00 0.00 0.00 42 1001.4
20190422214516 16 102 20.9 41.8 0.00 0.00 0.00 41 1001.6
20190422213516 16 98 22.5 41.8 0.00 0.00 0.00 41 1001.7
20190422212516 16 98 20.9 40.2 0.00 0.00 0.00 41 1001.9
20190422211516 16 93 16.1 30.6 0.00 0.00 0.00 41 1001.9
20190422210516 16 94 16.1 32.2 0.00 0.00 0.00 41 1001.8
20190422205516 16 99 17.7 37.0 0.00 0.00 0.00 41 1001.8
20190422204517 16 97 16.1 37.0 0.00 0.00 0.00 40 1002.2
20190422203519 16 95 16.1 33.8 0.00 0.00 0.00 40 1002.2
20190422202523 17 99 12.9 27.4 0.00 0.00 0.00 39 1002.3
20190422201516 17 94 14.5 29.0 0.00 0.00 0.00 39 1002.3
20190422200515 17 94 11.3 25.7 0.00 0.00 0.00 38 1002.4
20190422195516 17 93 11.3 22.5 0.00 0.00 0.00 38 1002.4
20190422194516 17 88 9.7 20.9 0.00 0.00 0.00 37 1002.5
20190422193516 17 89 9.7 20.9 0.00 0.00 0.00 36 1002.4
20190422192516 17 85 9.7 19.3 0.00 0.00 0.00 34 1002.4
20190422191516 18 88 9.7 20.9 0.00 0.00 0.00 32 1002.4
20190422190516 18 90 9.7 22.5 0.00 0.00 0.00 31 1002.5
20190422185515 18 99 11.3 25.7 0.00 0.00 0.00 31 1002.5
20190422184516 18 98 12.9 29.0 0.00 0.00 0.00 30 1002.5
20190422183516 18 101 12.9 25.7 0.00 0.00 0.00 30 1002.5
20190422182515 18 104 9.7 20.9 0.00 0.00 0.00 30 1002.5
20190422181515 19 111 12.9 24.1 0.00 0.00 0.00 29 1002.5
20190422180516 20 103 14.5 27.4 0.00 0.00 0.00 28 1002.5
20190422175516 20 102 12.9 24.1 0.00 0.00 0.00 27 1002.5
20190422174518 20 101 14.5 29.0 0.00 0.00 0.00 26 1002.5
20190422173515 20 96 11.3 27.4 0.00 0.00 0.00 26 1002.6
20190422172516 21 98 11.3 25.7 0.00 0.00 0.00 25 1002.4
20190422171515 21 99 14.5 35.4 0.00 0.00 0.00 25 1002.6
20190422170515 21 99 14.5 25.7 0.00 0.00 0.00 24 1002.6
20190422165515 22 95 16.1 33.8 0.00 0.00 0.00 23 1002.7
20190422164515 22 95 16.1 33.8 0.00 0.00 0.00 24 1002.7
20190422163516 22 91 14.5 30.6 0.00 0.00 0.00 23 1002.9
20190422162515 22 96 12.9 32.2 0.00 0.00 0.00 23 1003.0
20190422161515 23 91 12.9 27.4 0.00 0.00 0.00 23 1003.1
20190422160516 23 91 14.5 27.4 0.00 0.00 0.00 23 1003.3
20190422155515 23 105 16.1 29.0 0.00 0.00 0.00 23 1003.3
20190422154515 23 89 12.9 32.2 0.00 0.00 0.00 24 1003.5
20190422153515 23 101 12.9 25.7 0.00 0.00 0.00 25 1003.7
20190422152515 22 100 16.1 32.2 0.00 0.00 0.00 26 1003.8
20190422151515 22 104 11.3 20.9 0.00 0.00 0.00 27 1003.7
20190422150515 22 101 14.5 27.4 0.00 0.00 0.00 26 1003.8
20190422145516 23 105 14.5 25.7 0.00 0.00 0.00 27 1004.1
20190422144520 24 86 11.3 20.9 0.00 0.00 0.00 25 1004.3
20190422143515 24 89 9.7 22.5 0.00 0.00 0.00 27 1004.4
20190422142515 24 104 12.9 32.2 0.00 0.00 0.00 25 1004.5
20190422141515 23 109 14.5 29.0 0.00 0.00 0.00 26 1004.6
20190422140515 25 88 8.0 29.0 0.00 0.00 0.00 25 1004.9
20190422135515 24 89 8.0 22.5 0.00 0.00 0.00 27 1004.9
20190422134515 23 96 9.7 25.7 0.00 0.00 0.00 26 1005.1
20190422133515 24 90 8.0 24.1 0.00 0.00 0.00 26 1005.2
20190422132515 23 98 12.9 29.0 0.00 0.00 0.00 27 1005.3
20190422131515 22 99 12.9 29.0 0.00 0.00 0.00 27 1005.4
20190422130515 22 101 16.1 29.0 0.00 0.00 0.00 27 1005.6
20190422125515 23 106 17.7 27.4 0.00 0.00 0.00 26 1005.7
20190422124515 23 101 14.5 30.6 0.00 0.00 0.00 27 1005.9
20190422123515 23 94 12.9 32.2 0.00 0.00 0.00 26 1006.0
20190422122515 23 104 16.1 40.2 0.00 0.00 0.00 27 1006.3
20190422121515 23 101 12.9 27.4 0.00 0.00 0.00 26 1006.4
20190422120515 25 89 11.3 33.8 0.00 0.00 0.00 23 1006.6
20190422115515 25 83 11.3 24.1 0.00 0.00 0.00 26 1006.8
20190422114515 25 107 17.7 27.4 0.00 0.00 0.00 26 1006.7
20190422113517 23 81 11.3 32.2 0.00 0.00 0.00 27 1006.9
20190422112517 23 114 12.9 30.6 0.00 0.00 0.00 25 1007.0
20190422111517 23 117 11.3 29.0 0.00 0.00 0.00 27 1007.1
20190422110517 23 107 12.9 30.6 0.00 0.00 0.00 27 1007.3
20190422105517 23 112 17.7 35.4 0.00 0.00 0.00 25 1007.4
20190422104517 23 114 17.7 37.0 0.00 0.00 0.00 27 1007.7
20190422103517 22 132 11.3 24.1 0.00 0.00 0.00 28 1007.8
20190422102517 21 111 16.1 37.0 0.00 0.00 0.00 28 1007.7
20190422101517 22 95 19.3 37.0 0.00 0.00 0.00 27 1008.0
20190422100517 23 98 16.1 30.6 0.00 0.00 0.00 26 1008.3
20190422095517 22 105 17.7 40.2 0.00 0.00 0.00 29 1008.3
20190422094517 22 110 17.7 30.6 0.00 0.00 0.00 28 1008.3
20190422093517 21 107 20.9 37.0 0.00 0.00 0.00 31 1008.4
20190422092517 21 114 14.5 35.4 0.00 0.00 0.00 30 1008.5
20190422090517 21 101 17.7 37.0 0.00 0.00 0.00 30 1008.6
20190422085516 21 105 14.5 33.8 0.00 0.00 0.00 31 1008.7
20190422084516 20 109 14.5 35.4 0.00 0.00 0.00 34 1008.9